sat.trackr.live / text

‹ back to catalog

STARLINK-4585

NORAD 53567 · 2022-101AS

PAYLOAD ACTIVE UNKNOWN

§ Identity

Operator
Country
US
Launch date
2022-08-19
Launch site
AFETR
Launch vehicle
Mass (kg)
RCS (m²)

Purposes: comms

External: N2YO · Heavens-Above · Gunter

§ Orbital elements

Epoch: 2026-09-19T23:27:01.109088Z

Period
94.01 min
Inclination
53.1580°
Eccentricity
0.0001276
Mean motion
15.31701477 rev/d
Perigee alt
469.9 km
Apogee alt
471.6 km
Semi-major
6,848.9 km
B*
2.5750e-5
RAAN
252.3307°
Arg perigee
80.8885°
Mean anomaly
279.2260°
Rev number
22,590

§ Raw data

STARLINK-45851 53567U 22101AS  26262.97709617  .00000434  00000+0  25750-4 0  99992 53567  53.1580 252.3307 0001276  80.8885 279.2260 15.31701477225907

JSON: /api/v1/satellites/53567 · /tle

For live sub-satellite position, see the globe view (requires WebGL).

§ Visibility from observer

Set your observer location to see the next 7 days of passes ≥ 10°. The values pass through the URL so the page stays shareable.

No JS? Fill the form by hand. The geolocation button needs JavaScript.